Weather reports worldwide

Advertisment
Zamora, Spain (8130): temperature & dewpoint: 25.03.2020 04:00:00 - 31.03.2020 04:00:00 (CEST)Zamora, Spain (8130): wind speed: 25.03.2020 04:00:00 - 31.03.2020 04:00:00 (CEST)Zamora, Spain (8130): wind direction: 25.03.2020 04:00:00 - 31.03.2020 04:00:00 (CEST)Zamora, Spain (8130): reduced air pressure: 25.03.2020 04:00:00 - 31.03.2020 04:00:00 (CEST)Zamora, Spain (8130): visibility: 25.03.2020 04:00:00 - 31.03.2020 04:00:00 (CEST)Zamora, Spain (8130): precipitation: 25.03.2020 04:00:00 - 31.03.2020 04:00:00 (CEST)
Date & Time tt [°C] td [°C] ff [km/h] ff [kn] dd ppp [hPa] vv [km] rr [mm]
31.03.2020 04:00:00 - - - - - - - -
31.03.2020 03:00:00 1,8 -3,5 18 10 ENE 1012,7 20 0,0
31.03.2020 02:00:00 2,2 -4,1 16 9 E 1013,7 20 -
31.03.2020 01:00:00 2,5 -4,1 18 10 E 1014,9 20 0,0
31.03.2020 00:00:00 2,7 -4,3 22 12 ENE 1015,1 20 0,0
30.03.2020 23:00:00 3,3 -4,4 21 11 ENE 1015,3 20 -
30.03.2020 22:00:00 4,1 -4,6 22 12 E 1015,2 20 0,0
30.03.2020 21:00:00 5,1 -5,9 15 8 E 1014,5 20 0,0
30.03.2020 20:00:00 5,9 -5,7 18 10 E 1014,0 20 -
30.03.2020 19:00:00 6,7 -6,0 18 10 E 1014,1 20 0,0
30.03.2020 18:00:00 6,9 -5,5 18 10 E 1014,9 20 0,0
30.03.2020 17:00:00 7,1 -5,0 16 9 ESE 1015,2 20 -
30.03.2020 16:00:00 7,3 -4,2 22 12 E 1015,7 20 0,0
30.03.2020 15:00:00 7,1 -4,4 22 12 ENE 1017,0 20 0,0
30.03.2020 14:00:00 6,3 -2,3 18 10 E 1018,0 2,0 -
30.03.2020 13:00:00 5,5 -2,8 21 11 ENE 1018,8 20 0,0
30.03.2020 12:00:00 4,7 -3,1 21 11 E 1019,4 20 0,0
30.03.2020 11:00:00 3,8 -2,2 16 9 E 1021,2 20 -
30.03.2020 10:00:00 - - - - - - - -
30.03.2020 09:00:00 - - - - - - - -
30.03.2020 08:00:00 3,8 -0,4 18 10 E 1020,7 20 -
30.03.2020 07:00:00 - - - - - - - -
30.03.2020 06:00:00 - - - - - - - -
30.03.2020 05:00:00 - - - - - - - -
30.03.2020 04:00:00 - - - - - - - -
30.03.2020 03:00:00 - - - - - - - -
30.03.2020 02:00:00 - - - - - - - -
30.03.2020 01:00:00 - - - - - - - -
30.03.2020 00:00:00 - - - - - - - -
29.03.2020 23:00:00 - - - - - - - -
29.03.2020 22:00:00 - - - - - - - -
29.03.2020 21:00:00 - - - - - - - -
29.03.2020 20:00:00 - - - - - - - -
29.03.2020 19:00:00 - - - - - - - -
29.03.2020 18:00:00 - - - - - - - -
29.03.2020 17:00:00 - - - - - - - -
29.03.2020 16:00:00 - - - - - - - -
29.03.2020 15:00:00 - - - - - - - -
29.03.2020 14:00:00 15,1 5,3 8 4 N 1017,8 20 -
29.03.2020 13:00:00 - - - - - - - -
29.03.2020 12:00:00 - - - - - - - -
29.03.2020 11:00:00 - - - - - - - -
29.03.2020 10:00:00 - - - - - - - -
29.03.2020 09:00:00 - - - - - - - -
29.03.2020 08:00:00 - - - - - - - -
29.03.2020 07:00:00 - - - - - - - -
29.03.2020 06:00:00 - - - - - - - -
29.03.2020 05:00:00 - - - - - - - -
29.03.2020 04:00:00 - - - - - - - -
29.03.2020 03:00:00 - - - - - - - -
29.03.2020 02:00:00 - - - - - - - -
29.03.2020 01:00:00 - - - - - - - -
29.03.2020 00:00:00 - - - - - - - -
28.03.2020 23:00:00 - - - - - - - -
28.03.2020 22:00:00 - - - - - - - -
28.03.2020 21:00:00 - - - - - - - -
28.03.2020 20:00:00 - - - - - - - -
28.03.2020 19:00:00 - - - - - - - -
28.03.2020 18:00:00 - - - - - - - -
28.03.2020 17:00:00 - - - - - - - -
28.03.2020 16:00:00 - - - - - - - -
28.03.2020 15:00:00 - - - - - - - -
28.03.2020 14:00:00 - - - - - - - -
28.03.2020 13:00:00 - - - - - - - -
28.03.2020 12:00:00 - - - - - - - -
28.03.2020 11:00:00 - - - - - - - -
28.03.2020 10:00:00 - - - - - - - -
28.03.2020 09:00:00 - - - - - - - -
28.03.2020 08:00:00 - - - - - - - -
28.03.2020 07:00:00 - - - - - - - -
28.03.2020 06:00:00 - - - - - - - -
28.03.2020 05:00:00 - - - - - - - -
28.03.2020 04:00:00 - - - - - - - -
28.03.2020 03:00:00 - - - - - - - -
28.03.2020 02:00:00 - - - - - - - -
28.03.2020 01:00:00 - - - - - - - -
28.03.2020 00:00:00 - - - - - - - -
27.03.2020 23:00:00 - - - - - - - -
27.03.2020 22:00:00 - - - - - - - -
27.03.2020 21:00:00 - - - - - - - -
27.03.2020 20:00:00 - - - - - - - -
27.03.2020 19:00:00 - - - - - - - -
27.03.2020 18:00:00 14,1 -2,8 4 2 S 1010,5 20 0,0
27.03.2020 17:00:00 13,9 -2,1 9 5 SE 1010,8 20 -
27.03.2020 16:00:00 13,2 -3,6 13 7 ESE 1011,4 20 0,0
27.03.2020 15:00:00 11,9 -1,3 15 8 E 1011,9 20 0,0
27.03.2020 14:00:00 10,6 -3,2 18 10 E 1012,7 20 -
27.03.2020 13:00:00 9,1 -2,2 16 9 ENE 1013,8 20 0,0
27.03.2020 12:00:00 7,6 -1,9 15 8 ENE 1014,4 20 0,0
27.03.2020 11:00:00 4,8 -1,2 13 7 ENE 1015,0 20 -
27.03.2020 10:00:00 1,5 -1,9 11 6 NE 1015,6 18 0,0
27.03.2020 09:00:00 -0,3 -2,8 5 3 ENE 1015,6 18 0,0
27.03.2020 08:00:00 -0,5 -3,4 5 3 NNE 1015,5 20 -
27.03.2020 07:00:00 0,6 -3,1 5 3 NE 1015,1 19 0,0
27.03.2020 06:00:00 1,5 -2,5 5 3 NNE 1014,5 20 0,0
27.03.2020 05:00:00 2,7 -2,4 8 4 E 1014,2 20 -
27.03.2020 04:00:00 3,5 -2,3 13 7 ESE 1014,0 20 0,0
27.03.2020 03:00:00 3,9 -1,1 8 4 E 1013,9 20 0,0
27.03.2020 02:00:00 4,7 0,1 9 5 E 1013,6 20 -
27.03.2020 01:00:00 5,4 0,2 9 5 ENE 1013,3 20 0,0
27.03.2020 00:00:00 6,5 0,0 9 5 E 1012,5 20 0,0
26.03.2020 23:00:00 8,2 0,2 13 7 E 1011,3 20 -
26.03.2020 22:00:00 10,1 0,1 8 4 E 1009,8 20 0,0
26.03.2020 21:00:00 12,7 -1,6 5 3 ESE 1008,3 20 0,0
26.03.2020 20:00:00 14,1 -3,7 8 4 SSE 1007,9 20 -
26.03.2020 19:00:00 15,9 -2,6 4 2 SE 1007,5 20 0,0
26.03.2020 18:00:00 16,8 -2,3 4 2 E 1007,6 20 0,0
26.03.2020 17:00:00 16,4 -0,4 5 3 ENE 1008,2 20 -
26.03.2020 16:00:00 15,4 -0,8 4 2 NNE 1009,2 20 0,0
26.03.2020 15:00:00 14,4 1,3 4 2 WSW 1010,1 20 0,0
26.03.2020 14:00:00 13,3 0,3 5 3 NE 1011,1 20 -
26.03.2020 13:00:00 12,4 0,5 5 3 E 1011,6 20 0,0
26.03.2020 12:00:00 10,4 1,0 8 4 SSE 1013,0 20 0,0
26.03.2020 11:00:00 7,3 0,3 8 4 ESE 1014,2 20 -
26.03.2020 10:00:00 3,6 0,1 4 2 NE 1015,4 20 0,0
26.03.2020 09:00:00 1,4 -0,7 4 2 ENE 1016,3 20 0,0
26.03.2020 08:00:00 0,9 -1,8 5 3 E 1016,2 20 -
26.03.2020 07:00:00 1,2 -1,5 2 1 NNE 1015,7 - 0,0
26.03.2020 06:00:00 1,9 -2,2 4 2 NE 1015,5 - 0,0
26.03.2020 05:00:00 3,3 -1,7 2 1 NE 1015,3 - -
26.03.2020 04:00:00 5,0 -2,4 0 0 N 1015,2 - 0,0
26.03.2020 03:00:00 5,9 -2,7 2 1 NW 1015,4 - 0,0
26.03.2020 02:00:00 6,4 -2,2 5 3 S 1015,4 - -
26.03.2020 01:00:00 7,8 -3,1 5 3 NE 1014,7 - 0,0
26.03.2020 00:00:00 9,4 -2,6 15 8 N 1014,2 - 0,0
25.03.2020 23:00:00 11,9 -2,7 15 8 N 1012,9 - -
25.03.2020 22:00:00 14,6 0,1 15 8 N 1011,7 - 0,0
25.03.2020 21:00:00 15,8 6,5 5 3 W 1010,5 - 0,0
25.03.2020 20:00:00 17,2 7,0 8 4 SW 1010,3 - -
25.03.2020 19:00:00 18,5 6,7 8 4 S 1009,9 - 0,0
25.03.2020 18:00:00 18,7 5,2 8 4 SSE 1010,2 - 0,0
25.03.2020 17:00:00 19,5 6,6 5 3 E 1010,5 20 -
25.03.2020 16:00:00 19,5 7,9 5 3 N 1011,1 20 0,0
25.03.2020 15:00:00 18,2 6,7 5 3 NE 1012,0 20 0,0
25.03.2020 14:00:00 16,9 7,0 5 3 WNW 1013,2 20 -
25.03.2020 13:00:00 14,7 8,0 5 3 S 1014,7 20 0,0
25.03.2020 12:00:00 12,2 7,1 4 2 E 1015,9 20 0,0
25.03.2020 11:00:00 9,3 5,8 2 1 ESE 1016,9 20 -
25.03.2020 10:00:00 6,5 5,0 4 2 N 1017,7 19 0,0
25.03.2020 09:00:00 3,6 2,6 2 1 NW 1018,7 17 0,0
25.03.2020 08:00:00 4,0 2,8 4 2 WNW 1018,2 20 -
25.03.2020 07:00:00 3,9 2,7 0 0 N 1018,4 19 0,0
25.03.2020 06:00:00 4,2 3,0 4 2 NE 1018,3 16 0,0
25.03.2020 05:00:00 4,9 3,1 2 1 E 1018,1 19 -
25.03.2020 04:00:00 - - - - - - - -

tt = temperature
td = dewpoint
ff = wind speed
dd = wind direction
ppp = reduced air pressure
vv = visibility
rr = precipitation

Next stations